FW1203 Weather Reports


time (UTC)temp
F
wind
direction
speed
knots
gust
knots
rain 1hr
in
rain 24hr
in
rain mn
in
humidity
%
barometer
mb
20260509161833 70 265 0.9 5.2 0.00 0.00 0.00 58 1002.5
20260509161332 70 256 0.9 5.2 0.00 0.00 0.00 59 1002.7
20260509160833 69 223 0.0 1.7 0.00 0.00 0.00 62 1002.6
20260509160333 69 220 0.0 2.6 0.00 0.00 0.00 62 1002.4
20260509155833 69 210 0.9 3.5 0.00 0.00 0.00 59 1002.4
20260509155333 69 201 0.9 3.5 0.00 0.00 0.00 60 1002.4
20260509154833 69 293 0.9 4.3 0.00 0.00 0.00 60 1002.3
20260509154333 68 230 0.9 4.3 0.00 0.00 0.00 60 1002.4
20260509153833 68 227 0.9 4.3 0.00 0.00 0.00 63 1002.4
20260509153332 68 244 0.0 4.3 0.00 0.00 0.00 63 1002.4
20260509152833 67 200 0.0 4.3 0.00 0.00 0.00 63 1002.4
20260509152333 67 283 0.9 6.1 0.00 0.00 0.00 64 1002.3
20260509151833 67 219 0.9 6.1 0.00 0.00 0.00 65 1002.4
20260509151333 67 242 0.9 2.6 0.00 0.00 0.00 65 1002.5
20260509150833 67 267 0.0 0.9 0.00 0.00 0.00 67 1002.4
20260509150333 67 263 0.0 3.5 0.00 0.00 0.00 67 1002.3
20260509145833 66 235 0.9 5.2 0.00 0.00 0.00 67 1002.3
20260509145333 66 208 0.9 5.2 0.00 0.00 0.00 67 1002.4
20260509144833 65 244 0.0 3.5 0.00 0.00 0.00 70 1002.3
20260509144333 65 208 0.0 3.5 0.00 0.00 0.00 72 1002.4
20260509143833 64 207 0.0 3.5 0.00 0.00 0.00 72 1002.3
20260509143333 63 281 0.0 5.2 0.00 0.00 0.00 73 1002.3
20260509142833 63 242 0.9 5.2 0.00 0.00 0.00 74 1002.3
20260509142333 63 0 0.0 0.0 0.00 0.00 0.00 74 1002.3
20260509141833 63 0 0.0 0.0 0.00 0.00 0.00 75 1002.3
20260509141333 62 0 0.0 0.0 0.00 0.00 0.00 76 1002.1
20260509140833 62 255 0.0 0.9 0.00 0.00 0.00 76 1002.2
20260509140333 62 255 0.0 1.7 0.00 0.00 0.00 74 1002.2
20260509135833 62 221 0.0 4.3 0.00 0.00 0.00 75 1002.1
20260509135333 62 220 0.9 5.2 0.00 0.00 0.00 75 1002.1
20260509134833 61 219 0.0 5.2 0.00 0.00 0.00 76 1002.1
20260509134333 61 254 0.0 3.5 0.00 0.00 0.00 77 1001.9
20260509133833 61 241 0.0 3.5 0.00 0.00 0.00 78 1002.0
20260509133333 60 218 0.0 2.6 0.00 0.00 0.00 79 1002.1
20260509132833 60 221 0.0 2.6 0.00 0.00 0.00 80 1002.2
20260509132333 60 253 0.9 2.6 0.00 0.00 0.00 80 1002.3
20260509131833 59 236 0.0 2.6 0.00 0.00 0.00 81 1002.3
20260509131333 59 269 0.0 3.5 0.00 0.00 0.00 82 1002.3
20260509130833 58 225 0.0 3.5 0.00 0.00 0.00 83 1002.3
20260509130333 58 293 0.0 1.7 0.00 0.00 0.00 84 1002.3
20260509125833 58 293 0.0 1.7 0.00 0.00 0.00 85 1002.4
20260509125333 57 342 0.0 0.9 0.00 0.00 0.00 85 1002.4
20260509124832 57 0 0.0 0.0 0.00 0.00 0.00 86 1002.3
20260509124333 56 269 0.0 4.3 0.00 0.00 0.00 87 1002.3
20260509123833 56 269 0.0 4.3 0.00 0.00 0.00 87 1002.4
20260509123333 56 0 0.0 0.0 0.00 0.00 0.00 87 1002.4
20260509122833 56 210 0.0 0.9 0.00 0.00 0.00 87 1002.4
20260509122333 55 210 0.0 4.3 0.00 0.00 0.00 87 1002.4
20260509121833 55 204 0.0 4.3 0.00 0.00 0.00 87 1002.5
20260509121333 55 213 0.0 1.7 0.00 0.00 0.00 87 1002.4
20260509120833 55 0 0.0 0.0 0.00 0.00 0.00 87 1002.4
20260509120333 55 0 0.0 0.0 0.00 0.00 0.00 87 1002.4
20260509115833 55 0 0.0 0.0 0.00 0.00 0.00 87 1002.2
20260509115333 55 218 0.0 2.6 0.00 0.00 0.00 87 1002.3
20260509114833 55 218 0.0 2.6 0.00 0.00 0.00 87 1002.2
20260509114333 55 282 0.0 1.7 0.00 0.00 0.00 87 1002.2
20260509113833 55 282 0.0 1.7 0.00 0.00 0.00 87 1002.2
20260509113333 55 0 0.0 0.0 0.00 0.00 0.00 87 1002.1
20260509112833 55 228 0.0 0.9 0.00 0.00 0.00 87 1002.0
20260509112333 55 228 0.0 2.6 0.00 0.00 0.00 87 1001.9
20260509111833 55 205 0.0 2.6 0.00 0.00 0.00 87 1002.0
20260509111333 55 212 0.0 2.6 0.00 0.00 0.00 87 1001.9
20260509110833 55 219 0.0 1.7 0.00 0.00 0.00 87 1001.8
20260509110333 55 219 0.0 0.9 0.00 0.00 0.00 87 1001.9
20260509105833 55 0 0.0 0.0 0.00 0.00 0.00 87 1001.8
20260509105333 55 196 0.0 0.9 0.00 0.00 0.00 87 1001.9
20260509104833 55 196 0.0 0.9 0.00 0.00 0.00 88 1001.7
20260509104333 55 196 0.0 0.9 0.00 0.00 0.00 88 1001.7
20260509103833 54 219 0.0 0.9 0.00 0.00 0.00 88 1001.6
20260509103333 54 227 0.0 1.7 0.00 0.00 0.00 89 1001.7
20260509102833 54 227 0.0 1.7 0.00 0.00 0.00 89 1001.7
20260509102333 54 247 0.0 0.9 0.00 0.00 0.00 90 1001.6
20260509101833 54 250 0.0 1.7 0.00 0.00 0.00 89 1001.6
20260509100833 54 218 0.0 0.9 0.00 0.00 0.00 90 1001.7
20260509100333 54 217 0.0 0.9 0.00 0.00 0.00 90 1001.8
20260509095833 54 217 0.0 2.6 0.00 0.00 0.00 90 1001.8
20260509095333 54 219 0.0 2.6 0.00 0.00 0.00 90 1001.8
20260509094833 54 0 0.0 0.0 0.00 0.00 0.00 90 1002.0
20260509094333 54 0 0.0 0.0 0.00 0.00 0.00 90 1002.1
20260509093833 54 0 0.0 0.0 0.00 0.00 0.00 90 1002.3
20260509093333 54 0 0.0 0.0 0.00 0.00 0.00 89 1002.4
20260509092833 54 0 0.0 0.0 0.00 0.00 0.00 89 1002.5
20260509092333 54 0 0.0 0.0 0.00 0.00 0.00 89 1002.5
20260509091833 54 0 0.0 0.0 0.00 0.00 0.00 89 1002.4
20260509091333 54 0 0.0 0.0 0.00 0.00 0.00 89 1002.5
20260509090833 54 0 0.0 0.0 0.00 0.00 0.00 89 1002.4
20260509090332 54 211 0.0 0.9 0.00 0.00 0.00 89 1002.4
20260509085833 54 211 0.0 0.9 0.00 0.00 0.00 89 1002.4
20260509085333 54 211 0.0 0.9 0.00 0.00 0.00 89 1002.5
20260509084833 54 0 0.0 0.0 0.00 0.00 0.00 89 1002.6
20260509084333 54 0 0.0 0.0 0.00 0.00 0.00 88 1002.6
20260509083833 54 0 0.0 0.0 0.00 0.00 0.00 88 1002.7
20260509083333 54 0 0.0 0.0 0.00 0.00 0.00 88 1002.6
20260509082333 54 0 0.0 0.0 0.00 0.00 0.00 88 1002.7
20260509081833 54 0 0.0 0.0 0.00 0.00 0.00 88 1002.6
20260509081332 54 0 0.0 0.0 0.00 0.00 0.00 87 1002.5
20260509080833 54 0 0.0 0.0 0.00 0.00 0.00 87 1002.6
20260509080333 55 0 0.0 0.0 0.00 0.00 0.00 87 1002.6
20260509075833 55 211 0.0 0.9 0.00 0.00 0.00 87 1002.6
20260509075333 55 211 0.0 0.9 0.00 0.00 0.00 87 1002.6
20260509074833 55 0 0.0 0.0 0.00 0.00 0.00 87 1002.7
20260509074333 55 0 0.0 0.0 0.00 0.00 0.00 86 1002.8
20260509073833 55 0 0.0 0.0 0.00 0.00 0.00 86 1002.8
20260509073333 55 0 0.0 0.0 0.00 0.00 0.00 86 1002.9
20260509072833 55 0 0.0 0.0 0.00 0.00 0.00 86 1003.0
20260509072333 55 0 0.0 0.0 0.00 0.00 0.00 86 1003.0
20260509071833 55 0 0.0 0.0 0.00 0.00 0.00 86 1003.1
20260509071333 55 210 0.0 1.7 0.00 0.00 0.00 86 1003.1
20260509070833 55 210 0.0 1.7 0.00 0.00 0.00 85 1003.2
20260509070333 56 0 0.0 0.0 0.00 0.00 0.00 85 1003.3
20260509065833 56 0 0.0 0.0 0.00 0.00 0.00 85 1003.4
20260509065333 56 0 0.0 0.0 0.00 0.00 0.00 85 1003.5
20260509064833 56 0 0.0 0.0 0.00 0.00 0.00 85 1003.4
20260509064333 56 261 0.0 0.9 0.00 0.00 0.00 85 1003.6
20260509063833 56 261 0.0 0.9 0.00 0.00 0.00 84 1003.7
20260509063333 56 262 0.0 0.9 0.00 0.00 0.00 85 1003.7
20260509062833 56 0 0.0 0.0 0.00 0.00 0.00 84 1003.7
20260509062333 57 267 0.0 2.6 0.00 0.00 0.00 84 1003.8
20260509061833 57 267 0.0 2.6 0.00 0.00 0.00 84 1003.8
20260509061333 57 235 0.0 1.7 0.00 0.00 0.00 84 1003.8
20260509060833 57 225 0.0 1.7 0.00 0.00 0.00 84 1003.8
20260509060333 57 225 0.0 1.7 0.00 0.00 0.00 84 1003.9
20260509055833 57 225 0.0 1.7 0.00 0.00 0.00 84 1004.0
20260509055333 57 225 0.0 0.9 0.00 0.00 0.00 84 1004.1
20260509054833 57 240 0.0 1.7 0.00 0.00 0.00 83 1004.1
20260509054333 57 210 0.0 1.7 0.00 0.00 0.00 83 1004.0
20260509053833 57 194 0.0 1.7 0.00 0.00 0.00 83 1004.1
20260509053333 57 0 0.0 0.0 0.00 0.00 0.00 83 1004.2
20260509052832 57 0 0.0 0.0 0.00 0.00 0.00 82 1004.2
20260509052333 57 0 0.0 0.0 0.00 0.00 0.00 82 1004.1
20260509051833 57 0 0.0 0.0 0.00 0.00 0.00 82 1004.1
20260509051333 57 0 0.0 0.0 0.00 0.00 0.00 82 1004.0
20260509050833 57 0 0.0 0.0 0.00 0.00 0.00 82 1003.9
20260509050333 56 204 0.0 1.7 0.00 0.00 0.00 82 1004.0
20260509045833 56 204 0.0 1.7 0.00 0.00 0.00 82 1004.2
20260509045333 56 244 0.0 1.7 0.00 0.00 0.00 82 1004.1
20260509044833 55 223 0.0 0.9 0.00 0.00 0.00 82 1003.9
20260509044333 55 223 0.0 0.9 0.00 0.00 0.00 82 1004.0
20260509043833 55 0 0.0 0.0 0.00 0.00 0.00 82 1004.1
20260509043333 55 0 0.0 0.0 0.00 0.00 0.00 82 1004.3
20260509042833 54 0 0.0 0.0 0.00 0.00 0.00 81 1004.4
20260509042333 54 0 0.0 0.0 0.00 0.00 0.00 81 1004.3
20260509041833 54 0 0.0 0.0 0.00 0.00 0.00 81 1004.2
20260509041333 54 0 0.0 0.0 0.00 0.00 0.00 81 1004.2
20260509040833 54 0 0.0 0.0 0.00 0.00 0.00 81 1004.2
20260509040333 53 0 0.0 0.0 0.00 0.00 0.00 81 1004.2
20260509035833 53 0 0.0 0.0 0.00 0.00 0.00 81 1004.3
20260509035333 53 0 0.0 0.0 0.00 0.00 0.00 81 1004.3
20260509034833 53 0 0.0 0.0 0.00 0.00 0.00 80 1004.4
20260509034333 53 0 0.0 0.0 0.00 0.00 0.00 79 1004.4
20260509033833 53 0 0.0 0.0 0.00 0.00 0.00 79 1004.5
20260509033333 53 0 0.0 0.0 0.00 0.00 0.00 79 1004.4
20260509032833 53 0 0.0 0.0 0.00 0.00 0.00 79 1004.4
20260509032333 53 0 0.0 0.0 0.00 0.00 0.00 79 1004.5
20260509031833 53 0 0.0 0.0 0.00 0.00 0.00 79 1004.5
20260509030833 53 0 0.0 0.0 0.00 0.00 0.00 78 1004.5
20260509030333 53 0 0.0 0.0 0.00 0.00 0.00 78 1004.5
20260509025833 53 0 0.0 0.0 0.00 0.00 0.00 78 1004.6
20260509025333 53 0 0.0 0.0 0.00 0.00 0.00 77 1004.6
20260509024833 53 0 0.0 0.0 0.00 0.00 0.00 77 1004.6
20260509024333 54 0 0.0 0.0 0.00 0.00 0.00 77 1004.7
20260509023833 54 0 0.0 0.0 0.00 0.00 0.00 77 1004.7
20260509023333 54 0 0.0 0.0 0.00 0.00 0.00 76 1004.7
20260509022833 54 0 0.0 0.0 0.00 0.00 0.00 76 1004.7
20260509022333 54 0 0.0 0.0 0.00 0.00 0.00 76 1004.8
20260509021833 54 0 0.0 0.0 0.00 0.00 0.00 75 1004.8
20260509021333 54 0 0.0 0.0 0.00 0.00 0.00 75 1004.9
20260509020833 54 0 0.0 0.0 0.00 0.00 0.00 74 1004.9
20260509020333 54 0 0.0 0.0 0.00 0.00 0.00 74 1005.0
20260509015833 54 0 0.0 0.0 0.00 0.00 0.00 73 1005.0
20260509015333 54 0 0.0 0.0 0.00 0.00 0.00 72 1004.9
20260509014833 55 0 0.0 0.0 0.00 0.00 0.00 72 1004.9
20260509014333 55 0 0.0 0.0 0.00 0.00 0.00 71 1004.9
20260509013833 55 0 0.0 0.0 0.00 0.00 0.00 70 1004.9
20260509013333 55 0 0.0 0.0 0.00 0.00 0.00 70 1005.0
20260509012833 55 0 0.0 0.0 0.00 0.00 0.00 69 1004.9
20260509012333 55 0 0.0 0.0 0.00 0.00 0.00 68 1004.9
20260509011833 55 0 0.0 0.0 0.00 0.00 0.00 68 1004.8
20260509011333 55 0 0.0 0.0 0.00 0.00 0.00 67 1004.9
20260509010833 56 0 0.0 0.0 0.00 0.00 0.00 66 1004.9
20260509010332 56 223 0.0 0.9 0.00 0.00 0.00 66 1004.9
20260509005833 56 223 0.0 0.9 0.00 0.00 0.00 65 1004.9
20260509005333 56 223 0.0 0.9 0.00 0.00 0.00 64 1004.9
20260509004833 56 0 0.0 0.0 0.00 0.00 0.00 63 1004.9
20260509004333 57 0 0.0 0.0 0.00 0.00 0.00 63 1004.8
20260509003833 57 0 0.0 0.0 0.00 0.00 0.00 63 1004.8
20260509003333 57 0 0.0 0.0 0.00 0.00 0.00 62 1004.8
20260509002833 57 0 0.0 0.0 0.00 0.00 0.00 62 1004.9
20260509002333 57 0 0.0 0.0 0.00 0.00 0.00 60 1005.0
20260509001833 58 0 0.0 0.0 0.00 0.00 0.00 60 1005.1
20260509001333 58 0 0.0 0.0 0.00 0.00 0.00 60 1005.2
20260509000833 58 0 0.0 0.0 0.00 0.00 0.00 59 1005.2
20260509000333 58 0 0.0 0.0 0.00 0.00 0.00 59 1005.1
20260508235833 58 0 0.0 0.0 0.00 0.00 0.00 58 1005.2
20260508235333 59 0 0.0 0.0 0.00 0.00 0.00 58 1005.3
20260508234833 59 0 0.0 0.0 0.00 0.00 0.00 58 1005.3
20260508234333 59 0 0.0 0.0 0.00 0.00 0.00 56 1005.3
20260508233833 59 0 0.0 0.0 0.00 0.00 0.00 56 1005.4
20260508233332 60 0 0.0 0.0 0.00 0.00 0.00 56 1005.4
20260508232832 60 0 0.0 0.0 0.00 0.00 0.00 56 1005.3
20260508232333 60 0 0.0 0.0 0.00 0.00 0.00 56 1005.4
20260508231832 60 0 0.0 0.0 0.00 0.00 0.00 56 1005.4
20260508231333 60 0 0.0 0.0 0.00 0.00 0.00 56 1005.5
20260508230833 60 0 0.0 0.0 0.00 0.00 0.00 56 1005.5
20260508230332 60 0 0.0 0.0 0.00 0.00 0.00 56 1005.5
20260508225833 60 0 0.0 0.0 0.00 0.00 0.00 56 1005.6
20260508225333 60 119 0.0 0.9 0.00 0.00 0.00 56 1005.6
20260508224833 60 119 0.0 0.9 0.00 0.00 0.00 55 1005.7
20260508224333 60 116 0.0 2.6 0.00 0.00 0.00 54 1005.6
20260508223833 60 108 0.0 2.6 0.00 0.00 0.00 54 1005.6
20260508223332 60 58 0.0 0.9 0.00 0.00 0.00 53 1005.6
20260508222833 60 51 0.0 0.9 0.00 0.00 0.00 52 1005.7
20260508222333 60 51 0.0 1.7 0.00 0.00 0.00 51 1005.7
20260508221833 60 346 0.0 1.7 0.00 0.00 0.00 49 1005.7
20260508221333 60 60 0.0 1.7 0.00 0.00 0.00 50 1005.8
20260508220833 61 0 0.0 0.0 0.00 0.00 0.00 48 1005.8
20260508220333 61 186 0.0 1.7 0.00 0.00 0.00 47 1005.8
20260508215333 61 156 0.0 0.9 0.00 0.00 0.00 47 1005.9
20260508214833 61 156 0.0 3.5 0.00 0.00 0.00 45 1005.8
20260508214333 61 218 0.0 3.5 0.00 0.00 0.00 45 1005.9
20260508213833 61 151 0.9 3.5 0.00 0.00 0.00 43 1005.9
20260508213333 61 148 0.9 4.3 0.00 0.01 0.00 42 1006.0
20260508212833 62 168 0.9 4.3 0.00 0.01 0.00 41 1006.0
20260508212333 62 127 0.9 4.3 0.00 0.02 0.00 43 1006.1
20260508211833 62 158 0.9 4.3 0.00 0.03 0.00 41 1006.2
20260508211333 62 109 0.9 4.3 0.00 0.03 0.00 41 1006.2
20260508210833 62 175 0.9 4.3 0.00 0.03 0.00 43 1006.2
20260508210333 63 171 0.9 4.3 0.00 0.04 0.00 43 1006.1
20260508205833 63 161 0.9 4.3 0.00 0.04 0.00 44 1006.2
20260508205333 63 103 0.9 4.3 0.00 0.05 0.00 43 1006.1
20260508204833 63 160 0.9 6.1 0.00 0.05 0.00 43 1006.3
20260508204333 63 163 1.7 6.1 0.00 0.05 0.00 42 1006.3
20260508203833 64 177 0.9 5.2 0.00 0.05 0.00 41 1006.4
20260508203333 64 245 0.0 3.5 0.00 0.05 0.00 40 1006.5
20260508202833 64 197 0.9 7.0 0.00 0.05 0.00 42 1006.6
20260508202333 64 148 0.9 7.0 0.00 0.05 0.00 39 1006.7
20260508201833 64 175 0.0 3.5 0.00 0.05 0.00 41 1006.7
20260508201333 63 184 0.9 7.0 0.00 0.05 0.00 42 1006.8
20260508200833 64 144 0.9 7.0 0.00 0.05 0.00 40 1006.9
20260508200333 64 140 0.9 3.5 0.00 0.05 0.00 41 1007.0
20260508195833 64 219 0.9 3.5 0.00 0.05 0.00 44 1007.1
20260508195333 63 178 0.0 3.5 0.00 0.05 0.00 45 1007.1
20260508194833 63 165 0.9 3.5 0.00 0.05 0.00 43 1007.2
20260508194333 63 157 0.9 4.3 0.00 0.05 0.00 46 1007.2
20260508193833 63 117 1.7 5.2 0.00 0.05 0.00 47 1007.3
20260508193333 63 128 0.9 5.2 0.00 0.05 0.00 51 1007.4
20260508192833 63 212 0.0 4.3 0.00 0.05 0.00 50 1007.4
20260508192333 63 179 0.0 2.6 0.00 0.05 0.00 53 1007.5
20260508191832 62 360 0.0 6.1 0.00 0.05 0.00 53 1007.4
20260508191333 62 108 0.9 6.1 0.00 0.05 0.00 52 1007.5
20260508190833 62 155 0.9 5.2 0.00 0.05 0.00 51 1007.6
20260508190333 63 170 0.9 5.2 0.00 0.05 0.00 52 1007.7
20260508185833 63 158 0.9 5.2 0.00 0.05 0.00 56 1007.8
20260508185333 63 168 0.9 4.3 0.00 0.05 0.00 55 1007.9
20260508184833 63 45 0.0 3.5 0.00 0.05 0.00 60 1008.0
20260508184333 63 55 0.9 3.5 0.00 0.05 0.00 58 1008.0
20260508183833 63 38 0.0 2.6 0.00 0.05 0.00 62 1008.1
20260508183333 63 356 0.0 2.6 0.00 0.05 0.00 61 1008.1
20260508182833 63 294 0.0 0.9 0.00 0.05 0.00 62 1008.2
20260508182333 62 294 0.0 0.9 0.00 0.05 0.00 63 1008.2
20260508181833 62 84 0.0 0.9 0.00 0.05 0.00 65 1008.2
20260508181333 62 158 0.0 0.9 0.00 0.05 0.00 66 1008.3
20260508180833 62 355 0.0 2.6 0.00 0.05 0.00 67 1008.4
20260508180333 62 92 0.0 2.6 0.00 0.05 0.00 65 1008.4
20260508175833 62 17 0.0 2.6 0.00 0.05 0.00 64 1008.5
20260508175333 62 17 0.0 2.6 0.00 0.05 0.00 61 1008.5
20260508174833 62 152 0.9 2.6 0.00 0.05 0.00 65 1008.6
20260508174333 62 20 0.0 0.9 0.00 0.05 0.00 66 1008.6
20260508173833 62 189 0.0 0.9 0.00 0.05 0.00 68 1008.8
20260508173333 62 189 0.0 1.7 0.00 0.05 0.00 67 1008.8
20260508172833 62 127 0.0 5.2 0.00 0.05 0.00 68 1009.0
20260508172333 61 165 0.0 5.2 0.00 0.05 0.00 68 1009.0
20260508171833 61 181 0.0 3.5 0.00 0.05 0.00 70 1009.1
20260508171333 61 284 0.0 3.5 0.00 0.05 0.00 71 1009.2
20260508170833 61 126 0.0 0.9 0.00 0.05 0.00 70 1009.3
20260508170333 60 153 0.0 0.9 0.00 0.05 0.00 69 1009.3
20260508165832 60 153 0.0 0.9 0.00 0.05 0.00 69 1009.3
20260508165333 60 142 0.0 0.9 0.00 0.05 0.00 69 1009.4
20260508164833 60 142 0.0 0.9 0.00 0.05 0.00 70 1009.5
20260508164333 60 0 0.0 0.0 0.00 0.05 0.00 68 1009.6
20260508163833 60 0 0.0 0.0 0.00 0.05 0.00 71 1009.7
20260508163333 60 0 0.0 0.0 0.00 0.05 0.00 71 1009.9
20260508162833 60 171 0.0 0.9 0.00 0.05 0.00 68 1009.9
20260508162333 60 171 0.0 0.9 0.00 0.05 0.00 72 1009.9